GW7287 Weather Reports


time (UTC)temp
F
wind
direction
speed
knots
gust
knots
rain 1hr
in
rain 24hr
in
rain mn
in
humidity
%
barometer
mb
20260510224004 51 165 1.7 7.0 0.00 0.00 0.00 77 927.2
20260510223805 51 165 1.7 7.0 0.00 0.00 0.00 77 927.2
20260510214138 53 216 2.6 5.2 0.00 0.00 0.00 70 927.0
20260510213948 53 216 2.6 5.2 0.00 0.00 0.00 70 927.0
20260510204238 55 241 0.9 5.2 0.00 0.00 0.00 67 926.3
20260510203840 55 241 0.9 5.2 0.00 0.00 0.00 67 926.3
20260510195559 57 267 4.3 13.0 0.00 0.00 0.00 59 925.9
20260510195322 57 267 4.3 13.0 0.00 0.00 0.00 59 925.9
20260510185315 59 274 4.3 13.0 0.00 0.00 0.00 53 925.2
20260510184830 59 274 4.3 13.0 0.00 0.00 0.00 53 925.2
20260510174449 60 262 5.2 14.8 0.00 0.00 0.00 50 925.3
20260510174311 60 262 5.2 14.8 0.00 0.00 0.00 50 925.3
20260510164635 60 286 7.0 16.5 0.00 0.00 0.00 55 925.2
20260510164320 60 286 7.0 16.5 0.00 0.00 0.00 55 925.2
20260510154559 59 204 6.1 20.0 0.00 0.00 0.00 61 925.3
20260510154319 59 204 6.1 20.0 0.00 0.00 0.00 61 925.3
20260510143457 58 222 5.2 16.5 0.00 0.00 0.00 58 925.3
20260510141912 58 210 5.2 13.0 0.00 0.00 0.00 62 925.7
20260510130502 54 219 5.2 11.3 0.00 0.00 0.00 73 926.4
20260510125706 54 219 5.2 11.3 0.00 0.00 0.00 73 926.4
20260510115112 50 197 3.5 12.2 0.00 0.00 0.00 81 926.5
20260510105708 47 262 6.1 15.6 0.00 0.00 0.00 90 927.1
20260510100603 51 260 3.5 7.8 0.00 0.00 0.00 88 926.1
20260510095141 51 260 3.5 7.8 0.00 0.00 0.00 88 926.1
20260510080302 51 178 2.6 7.0 0.00 0.00 0.00 82 925.6
20260510080137 51 178 2.6 7.0 0.00 0.00 0.00 82 925.6
20260510055625 48 158 1.7 4.3 0.00 0.00 0.00 94 925.5
20260510054905 48 158 1.7 4.3 0.00 0.00 0.00 94 925.5
20260510022705 49 153 1.7 5.2 0.00 0.00 0.00 93 926.3
20260510020310 49 153 1.7 5.2 0.00 0.00 0.00 93 926.3
20260509234121 49 246 3.5 13.0 0.00 0.00 0.00 88 926.4